Zurück zum Katalog

STARLINK-31232

AktivKommunikationVLEO
NORAD 58831·PAYLOAD·🇺🇸 United States

Gestartet Jan 24, 2024 von Vandenberg Space Force Base

Loading…

Nächste Überflüge (nächste 24 Stunden)

TLE

AktuellSource: CelesTrak SupGP

Epoche: Sep 14, 2026, 20:56 UTC

1 58831C 24017F   26257.87270833  .00041643  00000+0  13396-2 0  2577
2 58831  53.1597  43.8173 0001217  79.9654   2.0731 15.31670190    11

Verfolge STARLINK-31232 in Echtzeit mit AllMySat

Download on the App Store